Temp
-6 -6 -6 -6 -6 -7 -7 -6 -7 -7 -7 -7 -7 -7 -7 -7 -7 -8 -8 -7 -7 -7 -7 -7 -8 -8 -8 -8 -9 -9 -9 -9 -9 -9 -10 -10 -10 -10 -10 -10 -10 -10 -10
-6 -6 -6 -6 -6 -7 -7 -6 -7 -7 -7 -7 -7 -7 -7 -7 -7 -8 -8 -8 -7 -7 -7 -7 -8 -8 -8 -8 -9 -9 -9 -9 -9 -9 -9 -9 -9 -9 -10 -10 -10 -10 -10
-6 -6 -6 -6 -7 -7 -7 -7 -7 -7 -6 -6 -7 -7 -7 -7 -7 -7 -8 -7 -7 -7 -7 -8 -8 -8 -8 -8 -9 -8 -9 -9 -9 -9 -9 -9 -9 -9 -9 -9 -10 -10 -10
-5 -5 -6 -6 -6 -7 -7 -7 -6 -7 -7 -7 -7 -7 -7 -7 -7 -7 -7 -7 -7 -7 -7 -7 -8 -8 -8 -8 -8 -8 -8 -9 -8 -9 -9 -9 -9 -8 -9 -9 -9 -10 -10
-5 -5 -5 -5 -6 -7 -7 -6 -6 -6 -7 -7 -7 -7 -7 -7 -7 -7 -7 -7 -7 -7 -7 -7 -7 -8 -8 -8 -8 -8 -8 -8 -8 -8 -8 -8 -8 -8 -9 -8 -9 -9 -10
-5 -5 -5 -5 -6 -6 -7 -6 -6 -6 -6 -6 -7 -7 -7 -7 -6 -7 -7 -7 -7 -7 -7 -7 -8 -8 -8 -8 -8 -9 -9 -9 -9 -8 -8 -8 -8 -8 -8 -8 -8 -9 -10
-5 -5 -5 -6 -6 -6 -7 -7 -6 -7 -7 -6 -6 -6 -6 -6 -6 -6 -7 -7 -7 -8 -8 -8 -8 -8 -8 -8 -8 -8 -9 -8 -8 -8 -8 -8 -8 -8 -8 -8 -9 -9 -10
-5 -5 -5 -6 -6 -6 -7 -7 -6 -6 -6 -6 -6 -6 -7 -6 -6 -6 -7 -7 -7 -8 -8 -8 -7 -8 -8 -8 -8 -8 -8 -8 -8 -9 -8 -8 -8 -8 -8 -8 -8 -9 -10
-5 -5 -5 -5 -6 -6 -7 -7 -6 -6 -5 -6 -6 -7 -6 -7 -6 -6 -7 -6 -7 -8 -8 -7 -7 -7 -7 -8 -8 -8 -8 -8 -8 -8 -9 -8 -8 -8 -8 -8 -8 -9 -9
-4 -5 -5 -5 -6 -6 -6 -7 -6 -6 -5 -6 -6 -6 -7 -7 -6 -6 -6 -6 -7 -7 -7 -7 -7 -7 -7 -7 -7 -7 -8 -8 -8 -8 -8 -9 -8 -8 -8 -8 -8 -9 -9
-5 -5 -5 -5 -6 -6 -6 -6 -6 -6 -6 -6 -6 -6 -6 -6 -6 -6 -6 -7 -7 -7 -7 -7 -7 -7 -7 -8 -7 -7 -7 -8 -8 -8 -8 -8 -8 -8 -8 -8 -9 -9 -8
-4 -4 -5 -6 -6 -6 -6 -6 -6 -6 -6 -6 -6 -6 -6 -6 -6 -6 -6 -7 -7 -7 -7 -7 -7 -7 -7 -7 -7 -7 -7 -8 -8 -8 -7 -7 -8 -8 -8 -8 -8 -8 -8
-5 -5 -5 -6 -6 -6 -6 -6 -6 -6 -6 -6 -6 -6 -6 -6 -6 -6 -7 -6 -7 -7 -7 -7 -7 -7 -7 -7 -7 -7 -7 -7 -8 -7 -7 -7 -8 -7 -7 -7 -7 -8 -8
-5 -5 -5 -6 -6 -6 -6 -6 -6 -6 -6 -6 -6 -6 -6 -6 -7 -6 -7 -6 -6 -7 -7 -7 -8 -7 -7 -7 -7 -7 -7 -7 -7 -7 -7 -7 -7 -7 -7 -7 -7 -7 -8
-5 -5 -5 -6 -6 -6 -6 -6 -7 -6 -7 -7 -7 -7 -7 -6 -7 -6 -7 -6 -6 -7 -7 -7 -8 -7 -7 -7 -7 -7 -6 -7 -7 -7 -7 -7 -7 -7 -7 -7 -7 -7 -8
-5 -5 -5 -6 -6 -6 -7 -7 -7 -6 -7 -7 -7 -7 -7 -7 -7 -6 -7 -6 -7 -7 -7 -7 -7 -7 -7 -7 -6 -7 -7 -6 -7 -7 -7 -7 -7 -6 -7 -8 -7 -8 -8
-5 -6 -5 -6 -6 -6 -7 -7 -7 -7 -7 -7 -7 -7 -7 -7 -7 -7 -7 -6 -6 -7 -7 -7 -7 -7 -7 -6 -6 -6 -7 -6 -6 -6 -7 -7 -7 -7 -6 -7 -7 -7 -7
-6 -6 -5 -5 -6 -6 -7 -7 -7 -7 -7 -7 -7 -7 -7 -7 -7 -7 -6 -6 -6 -7 -7 -7 -8 -8 -7 -6 -7 -7 -7 -7 -6 -6 -6 -7 -7 -7 -7 -6 -7 -7 -7
-5 -6 -6 -6 -6 -6 -7 -7 -7 -7 -7 -7 -7 -7 -7 -7 -7 -7 -6 -6 -6 -7 -7 -7 -7 -7 -7 -7 -7 -7 -7 -7 -6 -6 -6 -7 -7 -6 -6 -6 -6 -7 -7
-5 -5 -6 -6 -6 -6 -6 -7 -7 -7 -7 -7 -7 -7 -7 -7 -6 -6 -6 -6 -7 -7 -7 -7 -7 -7 -7 -7 -7 -7 -7 -7 -6 -7 -7 -7 -6 -7 -6 -6 -7 -7 -7
-6 -5 -5 -6 -6 -7 -7 -7 -7 -7 -7 -7 -7 -7 -7 -7 -7 -7 -6 -6 -7 -7 -7 -7 -7 -7 -7 -7 -7 -7 -7 -6 -6 -7 -7 -7 -7 -6 -6 -6 -7 -7 -7
-6 -6 -6 -6 -6 -7 -7 -7 -7 -8 -7 -7 -7 -7 -7 -7 -7 -6 -6 -6 -7 -7 -7 -7 -7 -7 -7 -7 -7 -7 -6 -6 -6 -6 -6 -7 -7 -6 -6 -7 -6 -6 -7
-6 -6 -6 -6 -6 -6 -7 -7 -7 -7 -7 -7 -7 -7 -7 -7 -7 -7 -7 -7 -7 -7 -7 -7 -7 -7 -7 -7 -7 -7 -7 -6 -7 -6 -7 -7 -7 -7 -7 -7 -6 -6 -6
-7 -7 -7 -7 -7 -7 -7 -7 -7 -7 -7 -7 -7 -7 -7 -6 -7 -7 -7 -7 -7 -7 -7 -7 -7 -7 -7 -7 -7 -7 -7 -7 -6 -6 -6 -6 -7 -7 -7 -7 -7 -6 -6
-7 -7 -7 -7 -7 -7 -7 -7 -7 -7 -7 -7 -7 -7 -7 -6 -6 -6 -7 -6 -7 -6 -7 -7 -7 -7 -7 -7 -7 -7 -7 -7 -7 -7 -6 -6 -6 -6 -6 -6 -7 -7 -6
-7 -7 -7 -7 -7 -6 -7 -6 -7 -7 -7 -7 -7 -7 -6 -6 -6 -6 -6 -6 -7 -6 -6 -6 -7 -7 -7 -7 -7 -7 -7 -7 -7 -7 -7 -7 -7 -6 -6 -7 -6 -7 -7
Height
5902 5901 5900 5900 5901 5902 5903 5903 5903 5903 5903 5903 5903 5904 5903 5903 5903 5903 5903 5903 5904 5903 5902 5901 5901 5901 5901 5899 5897 5896 5896 5895 5894 5894 5895 5896 5896 5896 5897 5899 5901 5903 5905
5901 5901 5900 5899 5900 5901 5902 5902 5903 5904 5903 5903 5903 5902 5903 5903 5903 5903 5903 5904 5904 5904 5904 5903 5902 5900 5900 5899 5897 5896 5896 5895 5894 5894 5894 5894 5895 5896 5896 5897 5900 5903 5904
5901 5901 5900 5899 5899 5899 5900 5901 5902 5903 5903 5903 5903 5903 5903 5904 5903 5903 5904 5905 5905 5906 5905 5904 5902 5900 5900 5899 5899 5898 5896 5895 5894 5894 5893 5894 5895 5895 5897 5898 5900 5901 5905
5900 5901 5900 5899 5899 5898 5900 5900 5901 5901 5902 5902 5902 5903 5904 5905 5904 5904 5905 5905 5906 5905 5904 5904 5902 5901 5901 5900 5899 5898 5897 5895 5894 5893 5893 5894 5893 5893 5896 5897 5900 5902 5904
5901 5900 5899 5899 5899 5899 5900 5900 5900 5901 5900 5901 5902 5903 5903 5904 5904 5905 5905 5905 5905 5904 5903 5902 5901 5900 5900 5900 5897 5897 5896 5894 5893 5893 5893 5893 5893 5894 5896 5897 5901 5903 5904
5902 5901 5901 5899 5897 5897 5898 5899 5900 5901 5901 5900 5901 5902 5902 5903 5904 5905 5905 5904 5904 5903 5904 5903 5902 5901 5899 5898 5896 5895 5894 5894 5891 5892 5892 5893 5894 5895 5897 5899 5901 5904 5905
5902 5901 5902 5900 5898 5897 5898 5899 5900 5900 5900 5901 5901 5901 5902 5902 5903 5904 5905 5904 5904 5904 5904 5903 5902 5900 5899 5898 5896 5895 5893 5892 5890 5891 5892 5893 5895 5895 5895 5898 5902 5904 5905
5902 5902 5902 5901 5899 5898 5898 5899 5899 5899 5900 5900 5900 5900 5902 5902 5904 5904 5905 5905 5905 5905 5904 5904 5903 5901 5900 5898 5897 5895 5895 5893 5891 5891 5893 5893 5894 5894 5896 5897 5901 5904 5906
5902 5902 5901 5900 5900 5899 5899 5900 5899 5900 5899 5899 5900 5901 5903 5902 5904 5905 5905 5905 5906 5906 5905 5904 5904 5903 5900 5899 5898 5897 5895 5893 5892 5891 5894 5894 5894 5894 5897 5898 5902 5905 5907
5901 5901 5900 5899 5899 5899 5899 5900 5900 5900 5899 5900 5900 5901 5901 5902 5904 5905 5906 5906 5907 5907 5906 5906 5906 5905 5903 5901 5899 5898 5896 5894 5893 5891 5893 5893 5894 5895 5897 5900 5903 5905 5908
5900 5899 5899 5899 5899 5899 5899 5899 5900 5900 5900 5901 5901 5902 5901 5903 5904 5906 5907 5907 5906 5906 5906 5906 5906 5905 5904 5902 5900 5899 5897 5896 5895 5894 5893 5894 5895 5896 5897 5902 5904 5907 5908
5899 5898 5898 5898 5898 5899 5899 5899 5900 5899 5900 5900 5901 5901 5902 5903 5904 5905 5907 5906 5905 5906 5907 5907 5905 5906 5905 5903 5902 5901 5899 5897 5895 5895 5894 5894 5895 5895 5899 5901 5903 5906 5908
5897 5897 5896 5897 5898 5898 5899 5899 5900 5899 5899 5898 5899 5900 5901 5901 5903 5904 5906 5906 5905 5907 5908 5908 5907 5907 5907 5904 5902 5901 5900 5898 5897 5896 5896 5896 5895 5896 5899 5901 5904 5906 5909
5894 5894 5894 5895 5897 5898 5898 5899 5899 5899 5898 5897 5898 5899 5899 5900 5902 5903 5905 5906 5907 5907 5909 5910 5909 5908 5907 5906 5905 5903 5901 5900 5899 5897 5896 5897 5898 5899 5902 5904 5906 5908 5910
5893 5893 5894 5894 5896 5897 5898 5898 5898 5897 5898 5898 5897 5897 5899 5899 5901 5902 5903 5905 5907 5908 5909 5911 5910 5909 5908 5907 5905 5904 5902 5901 5901 5900 5899 5901 5901 5901 5903 5905 5907 5909 5912
5892 5892 5893 5893 5894 5896 5897 5898 5898 5898 5897 5897 5897 5896 5896 5898 5899 5900 5903 5905 5906 5907 5909 5910 5910 5910 5911 5908 5907 5905 5904 5904 5904 5904 5903 5903 5904 5905 5906 5909 5910 5912 5914
5890 5891 5891 5891 5892 5894 5896 5897 5897 5897 5897 5896 5895 5895 5896 5897 5899 5900 5901 5904 5907 5908 5907 5909 5909 5910 5910 5909 5907 5907 5906 5906 5907 5906 5906 5906 5906 5908 5909 5910 5912 5913 5915
5888 5889 5890 5891 5892 5892 5894 5895 5895 5896 5895 5895 5894 5894 5895 5896 5897 5898 5900 5903 5906 5907 5907 5908 5909 5909 5910 5910 5909 5908 5907 5907 5907 5908 5909 5909 5908 5909 5911 5913 5914 5916 5917
5888 5889 5890 5891 5891 5892 5892 5893 5893 5894 5894 5894 5892 5892 5893 5894 5895 5897 5899 5902 5906 5907 5908 5908 5909 5911 5910 5909 5909 5909 5909 5908 5908 5909 5911 5911 5910 5910 5911 5914 5915 5917 5919
5887 5889 5891 5891 5891 5891 5891 5890 5890 5892 5892 5890 5889 5889 5891 5892 5891 5895 5899 5902 5905 5907 5907 5907 5909 5910 5910 5910 5910 5910 5910 5910 5909 5910 5911 5912 5913 5912 5912 5914 5917 5918 5920
5887 5888 5889 5890 5889 5888 5889 5889 5889 5889 5890 5888 5888 5888 5889 5891 5892 5895 5899 5902 5905 5905 5906 5908 5909 5911 5910 5910 5910 5911 5913 5913 5912 5911 5912 5913 5914 5915 5914 5915 5916 5918 5920
5887 5888 5888 5888 5889 5889 5888 5888 5889 5888 5888 5888 5889 5889 5890 5892 5894 5896 5899 5902 5904 5905 5907 5908 5910 5911 5911 5912 5912 5913 5914 5914 5912 5911 5911 5912 5914 5916 5917 5917 5917 5919 5920
5887 5887 5888 5889 5890 5889 5888 5888 5888 5888 5889 5890 5889 5889 5891 5893 5894 5897 5900 5903 5905 5906 5907 5908 5910 5911 5912 5911 5912 5914 5913 5913 5913 5911 5912 5913 5914 5915 5917 5917 5919 5920 5921
5889 5888 5888 5889 5890 5890 5889 5889 5889 5890 5890 5891 5890 5891 5893 5894 5895 5898 5900 5903 5905 5907 5908 5909 5910 5911 5910 5910 5910 5909 5910 5910 5912 5911 5912 5913 5914 5915 5916 5917 5918 5920 5921
5890 5890 5889 5889 5890 5890 5890 5891 5891 5891 5891 5890 5892 5894 5895 5895 5896 5898 5899 5901 5903 5904 5907 5909 5910 5909 5909 5910 5907 5905 5907 5908 5909 5911 5911 5913 5914 5914 5914 5915 5916 5918 5918
5890 5891 5890 5889 5890 5891 5891 5891 5891 5891 5891 5892 5893 5895 5894 5895 5896 5897 5897 5898 5900 5903 5905 5906 5906 5908 5908 5907 5905 5905 5905 5906 5907 5909 5909 5911 5912 5914 5914 5914 5916 5917 5918
Wind_Speed
4 4 6 3 3 5 6 6 5 3 3 4 4 4 5 7 7 6 7 6 6 6 5 4 5 5 5 4 3 3 2 3 4 4 3 4 5 3 3 3 5 6 8
5 6 5 4 3 4 4 4 4 3 2 1 3 3 4 6 6 6 6 6 6 7 5 6 5 6 6 5 4 5 5 5 4 4 5 3 3 3 2 4 4 4 7
6 6 4 4 2 2 2 2 2 1 1 1 1 1 2 4 5 7 6 5 6 7 6 6 5 6 7 6 4 4 5 7 7 5 7 5 5 3 1 3 5 4 5
6 5 5 5 3 4 0 2 3 3 4 3 4 3 5 6 7 6 7 5 6 7 7 8 8 8 8 7 5 6 7 6 6 5 9 7 8 6 4 1 4 5 7
6 4 5 6 3 2 0 2 4 5 6 7 7 6 7 9 5 7 6 5 5 7 8 10 10 10 10 10 9 9 9 11 8 8 6 10 9 5 8 2 4 7 9
5 4 5 5 3 2 1 2 4 7 6 6 6 8 9 9 7 3 3 4 6 7 10 11 11 11 10 10 9 11 11 11 11 10 9 6 9 11 10 9 7 9 11
2 2 3 3 3 2 3 3 5 4 4 7 7 9 3 5 6 1 2 4 6 8 10 11 10 9 9 10 10 9 8 6 4 10 6 7 7 4 6 13 8 10 13
1 1 2 2 2 1 2 5 6 7 7 6 4 1 4 2 5 1 3 4 6 6 7 8 10 8 7 9 10 9 8 6 6 6 4 6 6 4 7 10 8 10 13
1 3 3 2 2 3 1 4 4 9 8 9 11 5 6 3 4 3 3 3 5 3 6 7 7 8 8 7 8 8 8 5 3 6 9 8 6 6 7 13 10 12 14
1 2 3 2 2 3 1 0 3 7 4 4 4 5 7 4 6 3 2 2 2 3 6 6 6 7 9 8 7 8 9 8 4 3 3 5 6 8 8 10 8 14 15
2 2 3 3 1 2 1 2 4 5 3 2 3 4 2 3 8 6 1 0 2 3 2 4 5 8 5 6 5 6 8 7 4 2 2 5 6 10 11 13 12 13 16
1 1 2 3 3 4 4 2 4 5 6 5 7 6 5 7 7 11 4 2 1 4 1 2 4 6 7 8 3 5 9 7 4 4 4 6 7 8 10 11 13 16 17
5 3 2 4 4 5 5 3 3 5 8 7 8 10 11 6 9 9 7 6 6 3 2 3 5 6 6 6 4 5 12 5 5 3 4 5 6 10 11 12 12 16 18
7 4 4 4 4 5 6 4 4 4 6 6 7 13 13 9 10 10 10 7 6 2 3 3 4 5 7 7 5 4 5 5 6 5 5 8 14 13 13 12 13 15 17
9 7 6 5 6 6 7 6 5 4 6 4 5 12 16 11 12 9 11 9 7 3 4 2 2 5 6 7 5 4 5 4 5 4 9 14 13 12 13 14 17 18 17
8 6 6 5 5 6 9 8 7 7 8 7 4 2 12 14 10 13 12 12 7 6 4 2 2 3 6 4 4 3 4 3 3 6 10 12 8 9 11 14 16 17 17
6 6 7 4 6 8 9 10 10 9 8 9 2 4 6 10 10 12 11 9 5 4 7 8 2 2 6 3 5 3 2 3 3 5 6 8 9 8 13 15 17 18 16
6 5 5 4 6 8 9 10 11 11 11 8 7 8 10 12 8 14 12 9 7 7 6 7 3 5 5 2 1 5 2 3 5 3 4 7 7 7 8 13 15 14 15
7 6 5 5 4 8 8 9 10 10 10 8 10 9 11 12 12 16 15 9 9 9 9 4 4 4 4 3 1 1 1 4 5 5 4 5 8 10 9 9 12 15 15
4 3 4 6 5 5 8 10 9 6 4 5 5 5 13 11 12 19 14 11 9 9 8 8 8 3 3 5 4 3 3 4 6 6 5 4 6 9 11 11 12 14 15
3 3 2 2 3 5 8 9 10 7 2 3 1 1 9 12 19 17 14 12 8 5 6 12 12 5 3 1 6 5 4 5 6 7 7 6 6 8 10 12 14 15 16
4 2 2 2 3 6 8 6 6 8 4 5 3 4 5 8 12 12 12 11 8 7 5 9 10 5 4 4 5 5 6 7 6 6 6 6 6 7 8 10 11 13 14
8 8 6 3 2 3 3 9 4 2 3 4 4 6 9 11 11 9 9 10 10 10 8 10 8 6 5 4 6 10 11 9 8 7 7 7 8 8 8 7 8 9 9
7 10 10 6 3 1 3 1 2 1 1 3 7 8 5 4 10 11 8 9 9 8 9 9 9 7 6 7 7 10 7 13 13 9 10 11 10 10 9 9 10 10 8
8 8 8 7 4 3 3 0 3 4 3 2 3 5 4 4 6 8 9 8 9 8 9 9 11 8 8 8 8 15 12 8 10 12 14 11 10 11 11 10 11 11 12
9 8 6 7 5 6 6 4 2 3 5 5 2 2 4 4 4 7 11 10 9 8 9 9 9 8 9 6 3 7 8 7 7 8 14 13 11 12 12 11 11 11 11
Wind_Direction
10 44 76 78 68 71 84 84 101 91 66 68 65 52 32 31 20 360 342 334 329 323 327 330 330 329 328 316 316 310 295 311 323 337 329 309 302 289 207 170 130 97 92
357 20 87 84 33 55 68 78 113 138 122 78 78 45 12 19 15 2 344 333 315 310 326 333 339 332 308 299 310 322 326 307 290 283 278 256 261 285 250 197 166 126 96
11 2 62 60 12 59 68 59 25 4 244 202 50 339 319 0 350 344 345 320 306 313 325 327 326 311 302 301 317 326 315 288 277 278 263 254 253 260 329 241 190 140 114
16 348 30 39 35 141 303 324 317 294 289 269 252 246 266 307 324 314 336 317 316 317 331 324 320 315 324 330 320 311 310 303 279 264 265 256 258 237 219 245 207 170 144
5 347 38 38 55 99 82 268 281 280 313 295 262 272 280 300 308 311 326 311 313 324 331 324 323 325 327 332 320 316 306 304 291 275 271 273 258 286 257 110 181 183 155
355 0 29 35 49 13 327 349 320 265 284 319 276 301 291 300 268 288 301 299 318 333 334 330 328 333 328 325 323 313 307 292 264 270 272 260 269 279 253 228 164 176 160
7 34 42 33 37 42 333 347 332 349 266 286 290 305 289 299 211 298 304 308 320 330 343 325 339 342 329 338 336 332 344 312 254 221 252 248 251 288 187 197 166 174 159
44 107 97 61 65 39 329 296 308 303 304 296 326 161 289 267 201 5 321 335 330 339 343 343 349 345 348 1 360 0 332 319 273 254 201 193 206 174 158 174 162 174 159
184 154 105 84 88 79 355 304 306 312 285 273 279 265 259 248 185 265 292 336 339 340 330 324 340 346 356 355 360 350 352 345 296 294 215 228 206 198 192 166 157 182 162
166 161 119 93 115 124 57 51 329 338 286 319 319 261 237 220 183 216 278 357 332 312 340 328 336 350 9 3 360 0 7 351 316 266 216 213 231 167 173 162 171 179 169
139 136 144 108 149 184 188 255 320 352 345 338 287 240 199 209 207 216 67 290 313 287 316 319 345 357 327 352 352 10 3 6 1 99 85 181 204 183 167 172 170 170 168
307 313 180 169 179 200 198 242 308 334 331 284 248 239 234 215 198 212 204 209 241 186 163 333 19 354 338 355 358 12 24 355 2 285 232 185 183 192 178 197 173 170 169
270 274 192 191 201 198 203 225 283 318 311 293 232 195 202 185 200 205 219 199 177 180 228 322 0 356 346 331 341 336 335 325 339 359 162 149 144 157 178 194 180 170 167
259 251 205 206 204 203 202 229 273 300 316 338 230 215 207 220 225 211 217 222 218 238 242 35 353 336 341 339 344 16 16 355 3 57 88 138 134 138 150 163 169 166 164
243 235 208 200 202 194 204 227 254 260 265 308 344 230 218 225 221 224 222 216 229 240 272 224 316 341 329 0 357 2 26 43 22 120 121 127 130 139 150 170 169 169 165
222 236 228 200 203 205 216 221 241 249 256 260 276 307 226 226 231 224 210 202 205 224 166 269 269 321 314 348 45 42 21 92 91 141 132 158 140 145 165 173 170 164 161
228 247 247 190 211 213 216 224 237 251 257 269 255 257 211 197 192 192 214 196 190 220 260 203 225 310 292 355 38 46 39 88 115 162 159 157 160 161 174 172 170 159 159
236 240 241 215 214 217 222 224 236 256 262 271 278 258 241 213 222 208 208 190 190 198 190 195 205 257 275 317 9 52 46 116 129 121 180 176 158 153 172 173 168 165 166
210 218 219 239 216 214 216 224 241 261 269 260 277 260 225 216 241 192 202 182 199 201 216 185 194 267 248 231 239 56 179 144 143 160 186 178 168 162 169 184 184 178 180
216 185 193 207 201 200 212 225 232 240 267 304 270 246 223 217 206 175 185 187 202 218 222 213 242 219 41 221 209 194 192 162 169 170 181 187 185 179 171 181 192 197 195
143 196 165 204 213 213 230 238 241 196 88 33 94 128 217 205 171 162 182 189 199 218 254 228 225 241 228 258 209 207 206 199 176 168 171 185 193 199 183 185 193 197 200
119 37 53 122 212 218 231 195 92 94 73 70 111 125 171 182 164 159 181 184 190 203 186 171 193 208 161 213 242 231 218 198 188 171 169 172 204 206 200 196 193 198 198
92 69 64 46 152 214 122 104 131 70 31 56 48 129 137 155 168 164 187 197 194 210 198 228 209 205 243 263 243 240 246 218 206 179 187 189 185 200 199 199 202 194 198
77 72 54 35 18 150 199 231 178 214 28 82 57 158 160 199 211 211 203 207 207 205 209 209 212 240 260 286 287 235 261 219 212 200 207 198 197 190 185 189 193 193 191
81 73 78 75 61 63 87 181 242 249 283 4 107 139 186 142 152 176 202 208 180 176 197 210 225 246 256 278 269 211 221 209 197 221 225 208 207 202 186 188 190 189 182
90 92 98 87 66 62 62 39 349 258 272 276 283 218 230 257 231 202 198 209 216 219 219 225 232 227 230 239 221 189 202 224 228 251 223 233 224 221 205 199 198 199 193